• In Netherlands
  • List of Countries
  • For 7 days
  • Water Temperature
  • Satellite Maps
  • Weather Map
  • Weather Widgets
  • user-avatar
    Login

    Hourly Weather Córdoba

    Today, 26 April, Thursday

    Time Temperature Precipitation Wind Pressure Humidity
    00:00 +21°C° 0 mm 3 mps 724 mmHg 92%
    01:00 +21°C° 0 mm 3 mps 724 mmHg 92%
    02:00 +22°C° 0 mm 3 mps 723 mmHg 92%
    03:00 +22°C° 0 mm 3 mps 723 mmHg 92%
    04:00 +22°C° 0 mm 3 mps 723 mmHg 91%
    05:00 +22°C° 0 mm 3 mps 723 mmHg 91%
    06:00 +22°C° 0.4 mm 4 mps 722 mmHg 88%
    07:00 +22°C° 0.4 mm 4 mps 722 mmHg 85%
    08:00 +23°C° 0 mm 7 mps 722 mmHg 79%
    09:00 +26°C° 0.2 mm 7 mps 722 mmHg 72%
    10:00 +27°C° 0.2 mm 7 mps 722 mmHg 65%
    11:00 +28°C° 0.2 mm 8 mps 722 mmHg 57%
    12:00 +29°C° 0.1 mm 8 mps 722 mmHg 54%
    13:00 +31°C° 0.1 mm 8 mps 721 mmHg 51%
    14:00 +32°C° 0.1 mm 8 mps 721 mmHg 48%
    15:00 +32°C° 0 mm 8 mps 720 mmHg 50%
    16:00 +30°C° 0 mm 7 mps 720 mmHg 52%
    17:00 +29°C° 0 mm 6 mps 719 mmHg 55%
    18:00 +28°C° 0 mm 5 mps 719 mmHg 58%
    19:00 +27°C° 0 mm 4 mps 720 mmHg 61%
    20:00 +26°C° 0 mm 3 mps 720 mmHg 64%
    21:00 +25°C° 0 mm 3 mps 720 mmHg 65%
    22:00 +25°C° 0 mm 3 mps 720 mmHg 66%
    23:00 +24°C° 0 mm 3 mps 720 mmHg 67%

    Tomorrow, 27 April, Friday

    Time Temperature Precipitation Wind Pressure Humidity
    00:00 +24°C° 0 mm 3 mps 720 mmHg 67%
    01:00 +24°C° 0 mm 3 mps 720 mmHg 68%
    02:00 +22°C° 0 mm 3 mps 720 mmHg 68%
    03:00 +22°C° 0 mm 3 mps 720 mmHg 68%
    04:00 +23°C° 0 mm 2 mps 720 mmHg 68%
    05:00 +23°C° 0 mm 2 mps 720 mmHg 68%
    06:00 +23°C° 0 mm 2 mps 720 mmHg 67%
    07:00 +24°C° 0 mm 2 mps 720 mmHg 66%
    08:00 +24°C° 0 mm 2 mps 721 mmHg 65%
    09:00 +27°C° 0 mm 3 mps 721 mmHg 57%
    10:00 +29°C° 0 mm 3 mps 721 mmHg 50%
    11:00 +32°C° 0 mm 4 mps 722 mmHg 43%
    12:00 +33°C° 0 mm 4 mps 721 mmHg 41%
    13:00 +34°C° 0 mm 4 mps 721 mmHg 39%
    14:00 +35°C° 0 mm 3 mps 721 mmHg 37%
    15:00 +33°C° 0 mm 4 mps 721 mmHg 42%
    16:00 +32°C° 0 mm 4 mps 721 mmHg 47%
    17:00 +30°C° 0 mm 4 mps 721 mmHg 53%
    18:00 +27°C° 0 mm 4 mps 722 mmHg 61%
    19:00 +23°C° 0 mm 5 mps 722 mmHg 70%
    20:00 +20°C° 0 mm 5 mps 722 mmHg 78%
    21:00 +19°C° 0 mm 5 mps 723 mmHg 78%
    22:00 +19°C° 0 mm 5 mps 723 mmHg 79%
    23:00 +18°C° 0 mm 4 mps 724 mmHg 79%

    Day after tomorrow, 28 April, Saturday

    Time Temperature Precipitation Wind Pressure Humidity
    00:00 +18°C° 0 mm 4 mps 724 mmHg 79%
    01:00 +18°C° 0 mm 4 mps 724 mmHg 79%
    02:00 +17°C° 0 mm 4 mps 724 mmHg 78%
    03:00 +17°C° 0 mm 3 mps 724 mmHg 79%
    04:00 +17°C° 0 mm 3 mps 724 mmHg 80%
    05:00 +17°C° 0 mm 3 mps 724 mmHg 81%
    06:00 +17°C° 0 mm 3 mps 724 mmHg 80%
    07:00 +18°C° 0 mm 2 mps 725 mmHg 80%
    08:00 +18°C° 0 mm 2 mps 725 mmHg 79%
    09:00 +19°C° 0 mm 2 mps 725 mmHg 77%
    10:00 +20°C° 0 mm 3 mps 726 mmHg 75%
    11:00 +21°C° 0 mm 3 mps 726 mmHg 73%
    12:00 +22°C° 0 mm 3 mps 725 mmHg 70%
    13:00 +24°C° 0 mm 3 mps 725 mmHg 68%
    14:00 +25°C° 0 mm 3 mps 724 mmHg 66%
    15:00 +24°C° 0 mm 3 mps 724 mmHg 69%
    16:00 +24°C° 0 mm 3 mps 724 mmHg 71%
    17:00 +24°C° 0 mm 2 mps 723 mmHg 74%
    18:00 +23°C° 0 mm 2 mps 724 mmHg 78%
    19:00 +21°C° 0 mm 2 mps 724 mmHg 83%
    20:00 +20°C° 0 mm 2 mps 724 mmHg 87%
    21:00 +20°C° 0.1 mm 2 mps 724 mmHg 88%
    22:00 +20°C° 0.1 mm 2 mps 724 mmHg 89%
    23:00 +21°C° 0.1 mm 1 mps 724 mmHg 89%

    29 April, Sunday

    Time Temperature Precipitation Wind Pressure Humidity
    00:00 +20°C° 0.2 mm 1 mps 724 mmHg 91%
    01:00 +20°C° 0.2 mm 1 mps 723 mmHg 92%
    02:00 +20°C° 0.2 mm 1 mps 723 mmHg 93%
    03:00 +20°C° 0.2 mm 1 mps 722 mmHg 93%
    04:00 +20°C° 0.2 mm 1 mps 722 mmHg 93%
    05:00 +20°C° 0.2 mm 1 mps 721 mmHg 93%
    06:00 +20°C° 0.1 mm 1 mps 722 mmHg 92%
    07:00 +21°C° 0.1 mm 1 mps 722 mmHg 91%
    08:00 +21°C° 0.1 mm 1 mps 722 mmHg 90%
    09:00 +22°C° 0.2 mm 1 mps 722 mmHg 85%
    10:00 +24°C° 0.2 mm 2 mps 722 mmHg 81%
    11:00 +25°C° 0.2 mm 2 mps 722 mmHg 77%
    12:00 +26°C° 0.2 mm 3 mps 722 mmHg 73%
    13:00 +28°C° 0.2 mm 4 mps 721 mmHg 69%
    14:00 +29°C° 0.2 mm 5 mps 720 mmHg 65%
    15:00 +28°C° 0.6 mm 4 mps 720 mmHg 71%
    16:00 +27°C° 0.6 mm 3 mps 720 mmHg 77%
    17:00 +25°C° 0.6 mm 2 mps 720 mmHg 82%
    18:00 +25°C° 0.9 mm 2 mps 720 mmHg 86%
    19:00 +24°C° 0.9 mm 2 mps 720 mmHg 90%
    20:00 +23°C° 0.9 mm 2 mps 721 mmHg 94%
    21:00 +23°C° 1.3 mm 2 mps 721 mmHg 94%
    22:00 +23°C° 1.3 mm 2 mps 721 mmHg 95%
    23:00 +23°C° 1.3 mm 2 mps 722 mmHg 96%

    30 April, Monday

    Time Temperature Precipitation Wind Pressure Humidity
    00:00 +21°C° 1.1 mm 3 mps 722 mmHg 96%
    01:00 +21°C° 1.1 mm 3 mps 722 mmHg 96%
    02:00 +21°C° 1.1 mm 3 mps 722 mmHg 96%
    03:00 +21°C° 0.6 mm 3 mps 722 mmHg 96%
    04:00 +20°C° 0.6 mm 3 mps 722 mmHg 95%
    05:00 +20°C° 0.6 mm 3 mps 722 mmHg 95%
    06:00 +20°C° 0.5 mm 3 mps 722 mmHg 95%
    07:00 +19°C° 0.5 mm 3 mps 722 mmHg 94%
    08:00 +19°C° 0.5 mm 3 mps 723 mmHg 94%
    09:00 +20°C° 0.4 mm 3 mps 723 mmHg 92%
    10:00 +20°C° 0.4 mm 3 mps 723 mmHg 90%
    11:00 +20°C° 0.4 mm 2 mps 723 mmHg 89%
    12:00 +20°C° 0.4 mm 2 mps 723 mmHg 88%
    13:00 +20°C° 0.4 mm 2 mps 722 mmHg 87%
    14:00 +21°C° 0.4 mm 2 mps 722 mmHg 87%
    15:00 +21°C° 0.1 mm 2 mps 722 mmHg 87%
    16:00 +21°C° 0.1 mm 2 mps 722 mmHg 88%
    17:00 +21°C° 0.1 mm 2 mps 722 mmHg 89%
    18:00 +20°C° 0.2 mm 2 mps 722 mmHg 91%
    19:00 +21°C° 0.2 mm 1 mps 722 mmHg 93%
    20:00 +20°C° 0.2 mm 1 mps 723 mmHg 95%
    21:00 +20°C° 0.1 mm 1 mps 723 mmHg 95%
    22:00 +20°C° 0.1 mm 1 mps 723 mmHg 96%
    23:00 +20°C° 0.1 mm 1 mps 723 mmHg 96%

    1 May, Tuesday

    Time Temperature Precipitation Wind Pressure Humidity
    00:00 +20°C° 0.1 mm 1 mps 723 mmHg 96%
    01:00 +20°C° 0.1 mm 1 mps 723 mmHg 96%
    02:00 +20°C° 0.1 mm 1 mps 722 mmHg 96%
    03:00 +20°C° 0.1 mm 1 mps 722 mmHg 96%
    04:00 +20°C° 0.1 mm 1 mps 722 mmHg 96%
    05:00 +20°C° 0.1 mm 1 mps 722 mmHg 96%
    06:00 +21°C° 0 mm 1 mps 722 mmHg 95%
    07:00 +21°C° 0 mm 1 mps 722 mmHg 94%
    08:00 +21°C° 0 mm 1 mps 722 mmHg 93%
    09:00 +22°C° 0.2 mm 1 mps 722 mmHg 90%
    10:00 +21°C° 0.2 mm 2 mps 723 mmHg 88%
    11:00 +23°C° 0.2 mm 2 mps 723 mmHg 86%
    12:00 +23°C° 0.1 mm 2 mps 722 mmHg 85%
    13:00 +23°C° 0.1 mm 2 mps 722 mmHg 85%
    14:00 +24°C° 0.1 mm 2 mps 722 mmHg 85%
    15:00 +23°C° 0.2 mm 2 mps 722 mmHg 86%
    16:00 +23°C° 0.2 mm 2 mps 722 mmHg 88%
    17:00 +23°C° 0.2 mm 2 mps 722 mmHg 90%
    18:00 +21°C° 0.1 mm 2 mps 722 mmHg 91%
    19:00 +21°C° 0.1 mm 2 mps 723 mmHg 93%
    20:00 +20°C° 0.1 mm 2 mps 723 mmHg 94%
    21:00 +20°C° 0.1 mm 2 mps 723 mmHg 95%
    22:00 +20°C° 0.1 mm 2 mps 724 mmHg 95%
    23:00 +19°C° 0.1 mm 2 mps 724 mmHg 96%
    Show more